CZ-1 DEB

基本信息
目录编号:
25882
目录名称:
CZ-1 DEB
国际标识:
1970-034D
轨道中心:
EARTH
物体状态:
在轨
发射日期:
1970-04-24 UTC
轨道信息
数据来源: 国际轨道数据
星历时间: 2026-09-10T18:14:38+0800
半长轴: 7278.31km
偏心率: 0.0660404
轨道倾角: 68.372°
近地点辐角: 311.485°
升交点赤经: 170.468°
平近点角: 43.131°
近地点: 419.51km
远地点: 1380.836km
周期: 102.992分钟
每日圈数: 13.981604
详细信息
发射场:
JSC
轨道高度:
LEO
数据来源:
AOE Integration Group
参考系:
TEME
时间系统:
UTC
历元类型:
SGP4
2D轨道图
3D轨道图
轨道高度分析图
轨道倾角分析图
轨道综合分析图
查看轨道综合分析图